Вернуться в каталог

STARLINK-3393

АктивенСвязьVLEO
NORAD 51132·PAYLOAD·🇺🇸 United States

Запущен Jan 19, 2022 с Cape Canaveral Space Force Station

Loading…

Ближайшие Пролёты (ближайшие 24 часа)

TLE

СвежийSource: CelesTrak SupGP

Эпоха: Sep 14, 2026, 21:10 UTC

1 51132C 22005AE  26257.88243056 -.00067876  00000+0 -20053-2 0  2573
2 51132  53.1589 164.0758 0001313  95.5524 140.1988 15.34426032    16

Отслеживайте STARLINK-3393 в реальном времени с AllMySat

Download on the App Store